When you browse on this site, cookies collect data to enhance your experience and personalize the content and advertising you see.
Visit our Privacy Policy to learn more. By continuing to use the site, you agree to this use of cookies and data.
  • In Hungary
  • List of Countries
  • For 7 days
  • Water Temperature
  • Satellite Maps
  • Weather Map
  • News
  • Weather Widgets
  • user-avatar
    Login

    Hourly Weather Kardzhali

    Today, 17 December, Monday

    Time Temperature Precipitation Wind Pressure Humidity
    00:00 +4°C° 0.5 mm 4 mps 726 mmHg 85%
    01:00 +4°C° 0.5 mm 3 mps 726 mmHg 85%
    02:00 +3°C° 0 mm 4 mps 726 mmHg 81%
    03:00 +3°C° 0.2 mm 4 mps 726 mmHg 82%
    04:00 +3°C° 0.2 mm 3 mps 726 mmHg 83%
    05:00 +3°C° 0.2 mm 3 mps 726 mmHg 84%
    06:00 +3°C° 0.1 mm 3 mps 726 mmHg 85%
    07:00 +4°C° 0.1 mm 2 mps 726 mmHg 85%
    08:00 +4°C° 0 mm 2 mps 726 mmHg 85%
    09:00 +4°C° 0.1 mm 2 mps 726 mmHg 84%
    10:00 +5°C° 0.1 mm 2 mps 726 mmHg 83%
    11:00 +5°C° 0.1 mm 2 mps 726 mmHg 83%
    12:00 +5°C° 0.1 mm 2 mps 726 mmHg 83%
    13:00 +5°C° 0.1 mm 2 mps 726 mmHg 83%
    14:00 +5°C° 0.1 mm 2 mps 726 mmHg 83%
    15:00 +5°C° 0.3 mm 2 mps 726 mmHg 85%
    16:00 +6°C° 0.3 mm 1 mps 726 mmHg 87%
    17:00 +6°C° 0.3 mm 1 mps 726 mmHg 88%
    18:00 +6°C° 0.3 mm 1 mps 726 mmHg 89%
    19:00 +6°C° 0.3 mm 1 mps 726 mmHg 90%
    20:00 +4°C° 0.3 mm 2 mps 727 mmHg 91%
    21:00 +4°C° 0.3 mm 2 mps 727 mmHg 91%
    22:00 +4°C° 0.3 mm 2 mps 727 mmHg 91%
    23:00 +4°C° 0.3 mm 2 mps 727 mmHg 91%

    Tomorrow, 18 December, Tuesday

    Time Temperature Precipitation Wind Pressure Humidity
    00:00 +4°C° 0.2 mm 2 mps 727 mmHg 91%
    01:00 +4°C° 0.2 mm 2 mps 728 mmHg 91%
    02:00 +4°C° 0.2 mm 2 mps 728 mmHg 90%
    03:00 +3°C° 0.2 mm 3 mps 728 mmHg 90%
    04:00 +3°C° 0.2 mm 3 mps 727 mmHg 89%
    05:00 +3°C° 0.2 mm 3 mps 727 mmHg 89%
    06:00 +2°C° 0.3 mm 3 mps 728 mmHg 88%
    07:00 +1°C° 0.3 mm 4 mps 728 mmHg 88%
    08:00 +1°C° 0.3 mm 4 mps 728 mmHg 88%
    09:00 +1°C° 0.2 mm 4 mps 728 mmHg 86%
    10:00 +1°C° 0.2 mm 4 mps 729 mmHg 85%
    11:00 +1°C° 0.2 mm 5 mps 729 mmHg 84%
    12:00 +2°C° 0.1 mm 5 mps 729 mmHg 83%
    13:00 +2°C° 0.1 mm 5 mps 728 mmHg 82%
    14:00 +2°C° 0.1 mm 5 mps 728 mmHg 81%
    15:00 +1°C° 0 mm 5 mps 728 mmHg 81%
    16:00 +1°C° 0 mm 5 mps 729 mmHg 82%
    17:00 +1°C° 0 mm 5 mps 729 mmHg 82%
    18:00 +1°C° 0.1 mm 5 mps 729 mmHg 82%
    19:00 +1°C° 0.1 mm 5 mps 729 mmHg 83%
    20:00 0°C° 0.1 mm 5 mps 729 mmHg 83%
    21:00 0°C° 0 mm 5 mps 730 mmHg 83%
    22:00 0°C° 0 mm 5 mps 730 mmHg 82%
    23:00 0°C° 0 mm 5 mps 730 mmHg 82%

    Day after tomorrow, 19 December, Wednesday

    Time Temperature Precipitation Wind Pressure Humidity
    00:00 -1°C° 0.1 mm 5 mps 730 mmHg 82%
    01:00 -1°C° 0.1 mm 5 mps 730 mmHg 81%
    02:00 -1°C° 0.1 mm 5 mps 730 mmHg 81%
    03:00 -1°C° 0 mm 4 mps 730 mmHg 81%
    04:00 -1°C° 0 mm 4 mps 730 mmHg 82%
    05:00 -1°C° 0 mm 4 mps 730 mmHg 82%
    06:00 -1°C° 0.1 mm 4 mps 730 mmHg 82%
    07:00 -1°C° 0.1 mm 4 mps 731 mmHg 83%
    08:00 -1°C° 0.1 mm 4 mps 731 mmHg 83%
    09:00 -1°C° 0.1 mm 4 mps 732 mmHg 81%
    10:00 -1°C° 0.1 mm 4 mps 732 mmHg 78%
    11:00 0°C° 0.1 mm 4 mps 732 mmHg 76%
    12:00 0°C° 0 mm 4 mps 732 mmHg 75%
    13:00 +1°C° 0 mm 4 mps 732 mmHg 73%
    14:00 +1°C° 0 mm 4 mps 732 mmHg 72%
    15:00 +1°C° 0 mm 3 mps 732 mmHg 75%
    16:00 +1°C° 0 mm 3 mps 732 mmHg 78%
    17:00 +1°C° 0 mm 2 mps 732 mmHg 80%
    18:00 +1°C° 0 mm 2 mps 733 mmHg 82%
    19:00 -1°C° 0 mm 2 mps 733 mmHg 83%
    20:00 -1°C° 0 mm 2 mps 734 mmHg 84%
    21:00 -1°C° 0 mm 2 mps 734 mmHg 83%
    22:00 -1°C° 0 mm 2 mps 734 mmHg 83%
    23:00 -1°C° 0 mm 2 mps 734 mmHg 83%

    20 December, Thursday

    Time Temperature Precipitation Wind Pressure Humidity
    00:00 0°C° 0 mm 1 mps 734 mmHg 83%
    01:00 0°C° 0 mm 1 mps 734 mmHg 82%
    02:00 0°C° 0 mm 1 mps 734 mmHg 82%
    03:00 0°C° 0 mm 1 mps 734 mmHg 82%
    04:00 0°C° 0 mm 1 mps 734 mmHg 82%
    05:00 0°C° 0 mm 1 mps 734 mmHg 81%
    06:00 0°C° 0 mm 1 mps 734 mmHg 81%
    07:00 0°C° 0 mm 1 mps 734 mmHg 81%
    08:00 0°C° 0 mm 1 mps 735 mmHg 81%
    09:00 +2°C° 0 mm 1 mps 735 mmHg 76%
    10:00 +3°C° 0 mm 1 mps 735 mmHg 71%
    11:00 +4°C° 0 mm 1 mps 735 mmHg 66%
    12:00 +5°C° 0 mm 1 mps 735 mmHg 66%
    13:00 +5°C° 0 mm 1 mps 734 mmHg 65%
    14:00 +6°C° 0 mm 1 mps 734 mmHg 64%
    15:00 +5°C° 0 mm 1 mps 734 mmHg 70%
    16:00 +4°C° 0 mm 1 mps 734 mmHg 76%
    17:00 +2°C° 0 mm 1 mps 734 mmHg 81%
    18:00 +2°C° 0 mm 1 mps 734 mmHg 82%
    19:00 +2°C° 0 mm 1 mps 734 mmHg 83%
    20:00 +2°C° 0 mm 1 mps 734 mmHg 84%
    21:00 +1°C° 0 mm 1 mps 734 mmHg 85%
    22:00 +1°C° 0 mm 1 mps 734 mmHg 85%
    23:00 +1°C° 0 mm 1 mps 734 mmHg 86%

    21 December, Friday

    Time Temperature Precipitation Wind Pressure Humidity
    00:00 +1°C° 0 mm 1 mps 734 mmHg 87%
    01:00 +1°C° 0 mm 1 mps 734 mmHg 87%
    02:00 +1°C° 0 mm 1 mps 733 mmHg 88%
    03:00 +1°C° 0 mm 1 mps 733 mmHg 88%
    04:00 +1°C° 0 mm 1 mps 733 mmHg 87%
    05:00 +1°C° 0 mm 1 mps 733 mmHg 87%
    06:00 +1°C° 0 mm 1 mps 733 mmHg 87%
    07:00 +1°C° 0 mm 1 mps 733 mmHg 87%
    08:00 +1°C° 0 mm 1 mps 733 mmHg 87%
    09:00 +3°C° 0 mm 1 mps 733 mmHg 83%
    10:00 +4°C° 0 mm 1 mps 733 mmHg 78%
    11:00 +5°C° 0 mm 1 mps 734 mmHg 74%
    12:00 +6°C° 0 mm 1 mps 733 mmHg 74%
    13:00 +6°C° 0 mm 1 mps 733 mmHg 74%
    14:00 +6°C° 0 mm 1 mps 732 mmHg 74%
    15:00 +5°C° 0 mm 1 mps 732 mmHg 78%
    16:00 +4°C° 0 mm 1 mps 732 mmHg 82%
    17:00 +2°C° 0 mm 0 mps 732 mmHg 87%
    18:00 +3°C° 0 mm 1 mps 733 mmHg 87%
    19:00 +3°C° 0 mm 1 mps 733 mmHg 87%
    20:00 +3°C° 0 mm 1 mps 733 mmHg 87%
    21:00 +3°C° 0 mm 1 mps 733 mmHg 87%
    22:00 +3°C° 0 mm 1 mps 733 mmHg 87%
    23:00 +3°C° 0 mm 1 mps 733 mmHg 86%

    22 December, Saturday

    Time Temperature Precipitation Wind Pressure Humidity
    00:00 +3°C° 0 mm 1 mps 733 mmHg 86%
    01:00 +3°C° 0 mm 1 mps 733 mmHg 86%
    02:00 +3°C° 0 mm 1 mps 732 mmHg 85%
    03:00 +3°C° 0 mm 1 mps 732 mmHg 85%
    04:00 +3°C° 0 mm 1 mps 732 mmHg 84%
    05:00 +3°C° 0 mm 1 mps 732 mmHg 83%
    06:00 +3°C° 0 mm 1 mps 732 mmHg 83%
    07:00 +3°C° 0 mm 1 mps 732 mmHg 82%
    08:00 +3°C° 0 mm 1 mps 732 mmHg 82%
    09:00 +5°C° 0 mm 1 mps 732 mmHg 78%
    10:00 +7°C° 0 mm 1 mps 733 mmHg 74%
    11:00 +8°C° 0 mm 1 mps 733 mmHg 70%
    12:00 +9°C° 0 mm 1 mps 732 mmHg 67%
    13:00 +10°C° 0 mm 1 mps 732 mmHg 65%
    14:00 +11°C° 0 mm 1 mps 731 mmHg 63%
    15:00 +9°C° 0 mm 1 mps 731 mmHg 69%
    16:00 +8°C° 0 mm 1 mps 731 mmHg 75%
    17:00 +6°C° 0 mm 1 mps 731 mmHg 80%
    18:00 +6°C° 0 mm 1 mps 731 mmHg 80%
    19:00 +5°C° 0 mm 2 mps 731 mmHg 80%
    20:00 +5°C° 0 mm 2 mps 731 mmHg 80%
    21:00 +4°C° 0 mm 2 mps 731 mmHg 79%
    22:00 +4°C° 0 mm 2 mps 731 mmHg 78%
    23:00 +5°C° 0 mm 1 mps 731 mmHg 77%
    Show more